Theta_e
284 285 285 285 286 288 289 292 296 298 300 302 308 314 311 311 310 311 312 310 309 308 306 305 304 304 302 302 303 302 300 298 298 296 294 293 293 292 291 291 291 292 292
282 283 284 284 284 285 286 290 293 296 298 300 304 310 310 309 308 308 309 310 308 307 305 304 303 302 301 301 301 301 299 300 299 297 295 291 291 293 292 291 292 290 291
281 281 283 282 283 283 284 287 290 293 296 298 303 306 309 308 306 306 306 307 307 307 305 304 303 302 301 300 300 300 300 298 300 300 298 294 291 291 293 291 290 290 289
281 281 281 282 282 282 284 286 287 290 292 295 298 300 301 301 302 303 304 304 305 305 304 303 302 300 299 299 300 301 300 300 298 299 300 298 297 292 288 288 288 289 290
280 281 281 282 282 282 282 283 285 287 289 291 294 295 296 299 302 302 302 301 302 303 303 302 301 299 299 299 299 299 298 299 298 298 296 295 295 295 292 287 285 287 288
279 280 281 282 282 282 282 283 284 285 286 287 289 291 292 293 294 296 299 301 301 300 300 301 300 299 298 298 298 298 298 298 297 297 296 294 293 292 291 289 285 284 286
278 279 279 281 281 281 282 284 283 284 285 285 285 286 289 291 291 292 293 295 296 298 299 299 298 297 297 297 297 297 296 296 295 295 295 295 295 295 294 290 285 284 287
280 280 280 281 281 282 282 283 283 283 284 284 284 285 285 287 288 290 291 291 292 293 296 300 299 298 297 296 296 296 296 296 295 294 294 295 296 296 295 293 288 282 285
280 281 282 282 283 283 283 284 284 284 284 285 285 284 284 283 283 284 286 287 289 291 293 295 297 299 298 297 296 295 295 296 296 296 296 295 295 295 295 294 294 289 282
280 281 282 283 284 284 285 285 286 285 285 285 286 285 284 284 283 283 282 283 285 288 289 291 294 296 298 297 296 295 295 295 294 295 295 295 295 295 294 293 293 292 289
280 281 281 283 284 286 286 286 286 286 286 286 286 285 285 284 284 283 281 282 283 284 286 288 291 292 293 295 295 294 294 293 293 294 293 294 295 294 293 293 293 291 291
282 281 283 282 284 285 286 285 286 286 286 286 285 284 284 283 283 282 282 282 281 282 284 287 288 289 290 291 292 293 293 293 292 293 293 292 294 293 293 293 292 290 291
281 282 282 283 283 283 283 283 283 282 283 284 285 284 283 282 280 280 280 280 280 281 282 283 285 286 287 289 290 291 291 292 292 293 292 293 293 292 292 292 291 291 290
280 280 279 279 281 281 282 281 282 282 281 282 281 281 281 282 281 279 276 276 277 278 279 280 281 283 286 288 287 289 290 289 289 290 292 293 292 292 292 291 290 290 287
279 279 278 279 279 280 280 279 279 279 279 278 277 276 278 279 278 277 275 275 274 274 273 276 278 279 284 286 287 288 289 288 287 287 288 291 291 290 292 291 290 289 286
277 277 278 279 280 277 276 275 274 275 277 273 270 272 273 275 275 275 274 274 273 274 272 273 274 277 282 287 288 288 286 287 286 286 286 287 287 290 292 292 293 291 287
271 274 273 273 277 271 274 270 271 273 272 271 271 271 272 273 273 272 272 273 274 273 271 272 274 275 278 286 288 287 285 285 286 286 286 285 287 287 289 291 292 291 291
270 270 270 268 270 270 269 268 269 269 270 272 272 272 272 272 273 273 272 271 271 272 275 275 273 274 277 285 287 288 284 284 285 286 286 286 285 285 287 287 287 287 287
265 266 265 265 263 265 266 265 266 264 266 269 270 271 271 271 271 272 273 273 272 274 275 276 276 276 276 283 286 286 281 282 283 285 286 285 285 286 289 286 285 285 285
264 267 265 263 265 266 266 268 266 264 265 268 269 269 269 269 269 271 273 272 273 276 278 278 276 274 276 281 285 285 282 279 282 284 285 286 287 288 289 286 285 284 283
265 264 262 262 263 264 269 268 268 266 266 268 268 267 268 269 270 271 273 274 275 276 274 275 276 274 274 276 284 287 280 282 283 283 283 285 288 289 289 289 285 285 284
262 263 264 263 261 263 268 267 267 268 268 268 268 267 267 269 270 271 272 273 275 276 275 274 276 277 276 278 283 286 287 285 283 283 283 284 287 289 289 288 288 288 284
267 266 265 265 265 266 267 265 266 266 266 266 264 265 266 268 269 269 270 271 273 275 276 276 276 276 276 277 283 286 287 285 281 282 284 286 287 289 288 289 289 285 283
264 264 262 262 262 264 264 264 264 265 263 262 262 264 265 265 267 269 270 270 271 273 275 276 276 276 275 276 277 279 280 282 282 281 281 283 286 288 287 284 287 283 283
262 262 260 260 261 262 261 261 262 262 260 260 261 262 263 263 264 266 267 268 270 272 273 275 276 275 275 276 280 280 277 275 278 271 280 279 277 281 281 282 283 283 282
259 259 259 259 259 259 259 259 259 259 257 258 260 260 261 261 262 263 263 268 271 273 275 277 278 279 282 283 284 284 285 284 284 268 277 277 278 275 280 281 282 282 282
Wind_Speed
3 6 8 8 10 12 12 11 12 13 10 6 6 3 2 2 3 4 3 1 4 4 5 6 7 6 6 4 5 4 6 3 8 4 3 3 4 3 3 4 4 4 4
6 7 8 8 9 10 12 12 13 12 10 7 5 3 2 3 2 3 4 1 3 5 4 5 5 6 3 4 5 6 3 1 3 3 3 2 2 2 2 2 3 2 3
5 7 8 8 8 10 11 12 12 12 11 13 7 5 3 2 3 3 2 2 2 3 3 4 4 5 5 4 2 5 5 3 2 3 2 1 3 2 0 1 1 2 2
5 5 6 7 8 8 8 11 11 13 11 13 10 11 6 5 3 3 3 3 3 2 2 3 3 4 3 4 3 3 2 3 6 2 4 3 2 3 2 1 1 1 2
3 5 6 6 6 7 7 8 9 12 14 12 11 9 10 7 6 4 5 4 4 4 2 0 2 3 3 4 5 4 4 2 2 3 2 3 0 1 2 2 2 1 1
3 3 4 5 6 7 7 7 9 9 12 12 13 12 11 11 9 10 7 4 3 3 4 2 1 0 2 4 3 4 5 3 3 2 3 2 2 2 2 2 1 2 2
2 1 4 5 6 7 7 7 8 9 9 10 11 12 12 10 10 9 8 8 6 5 5 2 1 1 1 3 4 4 3 3 2 3 2 2 2 2 2 3 1 2 0
4 3 2 2 4 5 6 6 7 7 8 8 9 8 10 7 6 8 7 5 6 7 10 6 3 2 2 3 3 3 3 3 3 3 2 1 2 2 2 3 4 2 2
7 7 5 3 1 4 4 5 6 6 7 7 6 8 7 8 7 8 7 6 6 7 9 8 7 2 2 4 4 2 3 3 2 2 1 1 1 1 2 2 2 4 3
9 6 5 3 3 1 2 4 6 6 5 6 6 5 6 6 6 7 10 10 9 10 9 8 7 6 3 1 1 1 2 3 2 2 3 2 1 2 2 2 2 2 3
8 7 6 3 4 5 6 6 6 7 7 7 6 6 5 5 5 5 6 8 8 8 7 7 8 8 7 5 3 3 3 3 3 3 3 3 2 2 2 2 1 2 2
8 5 2 1 1 6 6 5 6 7 7 6 6 6 5 4 4 5 6 6 6 7 7 7 7 8 7 7 7 5 4 3 3 4 3 4 2 2 2 2 2 2 2
10 7 3 4 4 5 4 5 7 7 8 8 7 7 7 7 6 5 5 5 6 7 7 7 8 8 7 8 6 5 5 4 4 4 4 4 3 3 2 2 3 2 2
10 5 6 5 4 4 3 4 3 5 2 4 5 6 7 8 6 6 5 5 5 5 6 7 6 7 6 6 6 5 4 5 4 4 4 3 3 4 4 3 4 3 2
7 7 5 5 6 6 8 7 7 9 7 5 6 6 7 7 7 6 7 6 5 4 4 5 6 6 5 5 6 6 5 5 5 5 4 4 4 6 5 2 3 3 2
9 9 9 8 8 8 8 7 6 8 8 7 6 6 6 6 7 6 7 6 7 6 5 6 5 6 4 11 11 10 5 5 4 4 5 4 4 5 6 5 7 5 4
6 7 5 5 6 5 7 8 7 7 6 6 7 8 7 7 7 6 6 6 6 5 5 4 4 5 6 11 12 10 5 5 5 4 4 4 3 4 4 5 5 4 4
9 7 5 5 5 4 5 5 6 6 6 7 8 9 10 10 10 7 5 6 4 4 4 5 3 4 4 9 10 10 5 5 6 4 4 4 4 4 3 3 2 2 1
5 4 4 3 5 6 7 4 5 4 5 8 9 9 10 10 10 11 10 7 4 4 4 4 5 5 6 10 8 7 4 5 6 5 4 3 3 5 6 4 3 2 0
4 3 5 3 5 7 6 6 7 5 7 9 9 7 7 9 10 10 11 5 6 7 5 6 4 5 6 11 10 6 1 3 5 7 5 6 4 5 4 4 4 4 3
6 5 5 4 5 6 8 9 7 5 6 9 7 6 7 10 9 10 10 9 9 8 5 7 5 6 5 7 11 8 0 2 4 5 5 4 8 6 6 7 5 4 6
5 5 5 5 6 6 9 9 9 6 8 10 11 10 9 8 9 10 10 10 9 9 8 6 7 4 5 7 10 10 5 1 3 3 4 5 11 8 5 4 10 9 8
11 9 10 12 10 9 10 13 10 11 11 10 11 11 10 10 9 10 10 9 9 8 8 5 6 7 3 3 10 12 8 3 2 2 5 10 10 7 5 6 11 10 5
10 9 11 12 12 10 12 10 11 11 10 11 11 11 11 10 9 7 7 7 7 7 8 8 6 6 4 4 3 3 3 6 3 3 4 7 6 4 4 3 6 5 5
9 9 10 11 12 11 11 10 11 10 10 10 10 10 8 9 9 9 8 8 9 10 9 9 7 8 8 6 10 8 4 3 5 0 2 3 2 2 2 2 2 4 4
8 9 9 10 11 11 11 10 8 7 7 9 8 7 8 8 8 9 9 14 19 21 22 22 18 11 17 20 18 17 16 13 10 3 2 2 3 3 1 1 1 2 5
Wind_Direction
351 18 6 359 0 0 353 346 355 358 355 350 337 349 30 15 23 41 15 96 130 139 142 145 144 146 159 166 145 109 117 92 117 129 58 29 31 51 66 80 78 68 78
29 13 9 5 4 355 355 353 357 360 357 349 327 314 338 48 28 38 42 33 114 122 131 152 151 142 161 161 154 142 123 123 162 113 118 194 278 56 33 72 102 97 80
45 15 8 5 0 6 355 357 352 359 2 354 350 349 345 30 19 31 30 48 79 102 116 136 166 165 152 171 154 142 132 121 242 205 232 179 224 136 48 21 64 128 89
38 25 18 10 4 355 354 359 356 4 4 7 7 14 22 14 2 15 7 32 69 100 139 150 164 164 146 153 160 142 130 133 185 207 233 245 156 175 183 333 2 345 141
85 38 21 14 2 3 1 353 356 9 7 11 18 19 18 8 1 19 33 18 38 50 71 102 190 180 170 150 156 141 138 127 146 209 172 224 298 101 127 167 238 343 275
99 62 23 17 1 4 8 5 5 12 8 10 14 22 23 13 11 16 11 13 17 44 40 61 180 6 181 145 170 150 167 165 218 231 172 189 164 198 131 115 164 170 253
179 120 43 11 6 9 8 7 10 13 8 15 16 15 18 20 20 9 10 359 7 5 32 341 128 74 233 194 161 167 176 188 195 209 168 172 155 151 133 120 123 136 210
242 208 125 39 359 4 12 15 18 14 9 16 12 13 18 17 11 14 2 5 351 3 8 333 48 253 201 216 202 164 172 152 190 189 160 163 153 144 131 146 143 78 192
244 228 176 160 9 5 12 9 17 16 18 18 13 13 15 22 16 8 352 8 355 8 1 350 356 339 237 215 206 179 194 194 204 216 232 162 178 137 132 143 182 158 179
289 262 246 192 157 137 23 19 19 20 9 11 20 12 4 12 15 13 10 2 360 0 351 356 349 6 325 345 236 239 215 205 222 221 205 204 202 138 122 144 189 181 160
296 253 259 301 82 62 31 357 22 9 7 11 1 359 3 0 12 22 9 358 349 354 355 354 358 6 357 350 15 329 278 240 221 232 219 230 215 174 143 147 190 183 162
317 250 204 159 100 71 21 337 14 17 350 338 352 344 343 351 27 22 4 354 351 347 346 3 8 5 355 6 7 354 313 275 265 253 232 227 234 216 192 160 211 191 172
322 269 307 22 34 63 38 23 14 6 3 353 339 335 333 342 350 7 5 8 354 348 357 4 10 359 350 6 0 353 332 314 280 266 246 245 209 225 210 205 204 184 160
327 332 66 35 37 45 42 66 21 299 347 338 348 349 338 328 328 334 350 358 356 357 357 358 356 346 351 354 349 339 332 326 325 320 294 269 238 236 219 217 222 179 143
360 26 22 9 8 12 7 7 3 342 356 7 9 359 335 331 328 330 332 334 350 350 346 354 356 349 342 356 341 344 341 339 334 329 313 295 278 255 229 206 218 186 155
4 10 7 16 16 9 359 3 340 335 351 350 358 334 347 343 340 331 329 330 328 334 355 354 353 344 343 349 355 349 339 335 326 322 325 310 298 279 264 256 235 187 177
342 5 10 356 22 7 358 349 336 336 356 352 348 353 352 352 346 334 335 321 314 321 315 322 338 335 328 337 346 347 338 327 316 311 313 327 314 303 290 271 241 201 209
346 343 343 344 358 337 351 328 343 348 353 0 353 357 353 347 341 337 332 310 297 300 300 302 300 313 309 329 332 337 329 325 320 313 311 303 311 299 255 244 212 172 177
289 291 303 314 330 349 331 337 351 350 6 360 345 347 347 341 337 334 330 321 297 293 283 278 300 309 303 317 324 334 326 321 331 324 314 296 283 288 276 211 195 152 241
298 315 323 316 358 341 334 356 345 5 357 343 330 323 328 331 326 320 319 301 299 292 274 282 260 272 285 303 300 308 296 342 333 331 326 314 305 282 259 191 179 182 196
316 347 11 349 322 331 340 339 325 340 318 327 314 321 326 321 309 311 315 312 309 301 288 280 274 263 256 283 288 289 214 298 322 325 328 318 325 309 266 202 178 199 150
330 346 346 326 315 325 328 317 315 326 329 320 320 319 319 314 311 310 310 312 311 303 296 290 292 271 252 256 269 273 277 296 315 316 321 312 315 308 300 243 194 182 144
332 339 334 322 318 322 321 315 318 323 317 317 309 311 313 305 305 309 305 306 307 303 298 289 283 286 284 265 272 270 251 222 237 272 309 325 324 317 340 275 194 151 149
327 331 323 316 315 322 320 311 311 315 313 307 307 310 309 310 303 298 298 293 293 297 295 296 291 290 285 280 263 257 277 247 246 293 325 312 329 332 320 301 184 157 162
321 320 313 308 307 315 312 310 309 311 307 306 306 307 302 303 304 297 297 291 286 288 291 291 279 282 284 273 280 253 220 225 239 228 304 324 341 331 333 311 143 162 146
309 305 302 300 302 306 304 301 297 293 292 301 302 301 301 298 296 297 295 285 288 289 284 280 276 277 265 271 274 275 245 225 227 55 215 253 272 280 245 265 203 187 179